• In Uzbekistan
  • List of Countries
  • For 7 days
  • Water Temperature
  • Satellite Maps
  • Weather Map
  • Weather Widgets
  • user-avatar
    Login

    Hourly Weather Nivshera

    Today, 18 October, Thursday

    Time Temperature Precipitation Wind Pressure Humidity
    00:00 +2°C° 0 mm 3 mps 751 mmHg 84%
    01:00 +2°C° 0 mm 3 mps 751 mmHg 85%
    02:00 +2°C° 0 mm 3 mps 751 mmHg 87%
    03:00 +2°C° 0 mm 2 mps 751 mmHg 88%
    04:00 +2°C° 0 mm 2 mps 752 mmHg 89%
    05:00 +2°C° 0 mm 2 mps 751 mmHg 90%
    06:00 +2°C° 0 mm 2 mps 751 mmHg 91%
    07:00 +3°C° 0 mm 1 mps 751 mmHg 92%
    08:00 +3°C° 0 mm 1 mps 751 mmHg 89%
    09:00 +3°C° 0 mm 2 mps 750 mmHg 86%
    10:00 +4°C° 0 mm 2 mps 750 mmHg 84%
    11:00 +4°C° 0 mm 2 mps 750 mmHg 81%
    12:00 +4°C° 0 mm 2 mps 749 mmHg 79%
    13:00 +5°C° 0 mm 2 mps 748 mmHg 76%
    14:00 +4°C° 0.2 mm 3 mps 748 mmHg 78%
    15:00 +4°C° 0.2 mm 3 mps 747 mmHg 80%
    16:00 +3°C° 0.2 mm 3 mps 746 mmHg 82%
    17:00 +3°C° 0.3 mm 3 mps 745 mmHg 84%
    18:00 +3°C° 0.3 mm 4 mps 745 mmHg 86%
    19:00 +3°C° 0.3 mm 4 mps 744 mmHg 87%
    20:00 +3°C° 0.2 mm 4 mps 743 mmHg 89%
    21:00 +4°C° 0.2 mm 3 mps 743 mmHg 91%
    22:00 +4°C° 0.2 mm 3 mps 742 mmHg 93%
    23:00 +4°C° 0.1 mm 3 mps 742 mmHg 94%

    Tomorrow, 19 October, Friday

    Time Temperature Precipitation Wind Pressure Humidity
    00:00 +5°C° 0.1 mm 3 mps 741 mmHg 95%
    01:00 +5°C° 0.1 mm 3 mps 741 mmHg 96%
    02:00 +7°C° 0 mm 3 mps 741 mmHg 96%
    03:00 +7°C° 0 mm 3 mps 741 mmHg 96%
    04:00 +7°C° 0 mm 3 mps 741 mmHg 96%
    05:00 +7°C° 0 mm 2 mps 741 mmHg 96%
    06:00 +7°C° 0 mm 2 mps 741 mmHg 96%
    07:00 +7°C° 0 mm 2 mps 740 mmHg 97%
    08:00 +7°C° 0.3 mm 2 mps 740 mmHg 96%
    09:00 +7°C° 0.3 mm 3 mps 739 mmHg 95%
    10:00 +8°C° 0.3 mm 3 mps 739 mmHg 95%
    11:00 +8°C° 1.5 mm 3 mps 738 mmHg 94%
    12:00 +7°C° 1.5 mm 4 mps 737 mmHg 93%
    13:00 +7°C° 1.5 mm 4 mps 737 mmHg 92%
    14:00 +7°C° 0.4 mm 4 mps 736 mmHg 90%
    15:00 +7°C° 0.4 mm 5 mps 736 mmHg 89%
    16:00 +7°C° 0.4 mm 5 mps 736 mmHg 87%
    17:00 +7°C° 0.1 mm 5 mps 737 mmHg 86%
    18:00 +7°C° 0.1 mm 5 mps 737 mmHg 85%
    19:00 +6°C° 0.1 mm 5 mps 737 mmHg 83%
    20:00 +6°C° 0.1 mm 4 mps 738 mmHg 83%
    21:00 +5°C° 0.1 mm 4 mps 738 mmHg 83%
    22:00 +5°C° 0.1 mm 4 mps 739 mmHg 83%
    23:00 +5°C° 0 mm 4 mps 739 mmHg 83%

    Day after tomorrow, 20 October, Saturday

    Time Temperature Precipitation Wind Pressure Humidity
    00:00 +4°C° 0 mm 4 mps 739 mmHg 82%
    01:00 +4°C° 0 mm 4 mps 739 mmHg 81%
    02:00 +3°C° 0 mm 3 mps 740 mmHg 81%
    03:00 +3°C° 0 mm 3 mps 740 mmHg 82%
    04:00 +3°C° 0 mm 3 mps 740 mmHg 82%
    05:00 +3°C° 0.1 mm 3 mps 740 mmHg 84%
    06:00 +2°C° 0.1 mm 3 mps 740 mmHg 86%
    07:00 +2°C° 0.1 mm 3 mps 740 mmHg 87%
    08:00 +2°C° 0.1 mm 3 mps 740 mmHg 86%
    09:00 +2°C° 0.1 mm 3 mps 741 mmHg 84%
    10:00 +3°C° 0.1 mm 3 mps 741 mmHg 83%
    11:00 +3°C° 0.1 mm 3 mps 741 mmHg 80%
    12:00 +3°C° 0.1 mm 3 mps 741 mmHg 77%
    13:00 +3°C° 0.1 mm 3 mps 742 mmHg 74%
    14:00 +3°C° 0 mm 3 mps 742 mmHg 75%
    15:00 +3°C° 0 mm 3 mps 743 mmHg 76%
    16:00 +2°C° 0 mm 3 mps 743 mmHg 77%
    17:00 +2°C° 0 mm 3 mps 743 mmHg 78%
    18:00 +1°C° 0 mm 3 mps 744 mmHg 79%
    19:00 +1°C° 0 mm 3 mps 744 mmHg 80%
    20:00 0°C° 0 mm 3 mps 745 mmHg 80%
    21:00 0°C° 0 mm 3 mps 745 mmHg 81%
    22:00 -1°C° 0 mm 3 mps 746 mmHg 81%
    23:00 -1°C° 0 mm 3 mps 746 mmHg 81%

    21 October, Sunday

    Time Temperature Precipitation Wind Pressure Humidity
    00:00 -2°C° 0 mm 3 mps 746 mmHg 82%
    01:00 -2°C° 0 mm 2 mps 746 mmHg 82%
    02:00 -2°C° 0 mm 3 mps 747 mmHg 81%
    03:00 -2°C° 0 mm 3 mps 747 mmHg 80%
    04:00 -2°C° 0 mm 3 mps 748 mmHg 79%
    05:00 -2°C° 0 mm 3 mps 748 mmHg 78%
    06:00 -2°C° 0 mm 3 mps 748 mmHg 78%
    07:00 -2°C° 0 mm 3 mps 749 mmHg 77%
    08:00 -2°C° 0 mm 3 mps 749 mmHg 75%
    09:00 -1°C° 0 mm 3 mps 749 mmHg 73%
    10:00 -1°C° 0 mm 3 mps 750 mmHg 71%
    11:00 -1°C° 0 mm 3 mps 750 mmHg 70%
    12:00 -1°C° 0 mm 3 mps 751 mmHg 68%
    13:00 +1°C° 0 mm 2 mps 751 mmHg 66%
    14:00 +1°C° 0 mm 2 mps 751 mmHg 67%
    15:00 +1°C° 0 mm 2 mps 751 mmHg 67%
    16:00 -1°C° 0 mm 2 mps 752 mmHg 68%
    17:00 -1°C° 0 mm 2 mps 752 mmHg 70%
    18:00 +1°C° 0 mm 1 mps 752 mmHg 72%
    19:00 +1°C° 0 mm 1 mps 752 mmHg 75%
    20:00 +1°C° 0 mm 1 mps 752 mmHg 75%
    21:00 +1°C° 0 mm 1 mps 752 mmHg 76%
    22:00 0°C° 0 mm 1 mps 752 mmHg 76%
    23:00 0°C° 0 mm 1 mps 752 mmHg 78%

    22 October, Monday

    Time Temperature Precipitation Wind Pressure Humidity
    00:00 0°C° 0 mm 1 mps 752 mmHg 80%
    01:00 -1°C° 0 mm 1 mps 752 mmHg 82%
    02:00 -1°C° 0 mm 1 mps 752 mmHg 82%
    03:00 -1°C° 0 mm 1 mps 752 mmHg 83%
    04:00 -1°C° 0 mm 1 mps 752 mmHg 84%
    05:00 -3°C° 0 mm 2 mps 751 mmHg 86%
    06:00 -2°C° 0 mm 2 mps 751 mmHg 88%
    07:00 -2°C° 0 mm 2 mps 750 mmHg 89%
    08:00 -1°C° 0.1 mm 2 mps 750 mmHg 89%
    09:00 -1°C° 0.1 mm 3 mps 749 mmHg 89%
    10:00 0°C° 0.1 mm 3 mps 749 mmHg 88%
    11:00 0°C° 0.5 mm 4 mps 748 mmHg 87%
    12:00 0°C° 0.5 mm 4 mps 747 mmHg 87%
    13:00 0°C° 0.5 mm 4 mps 747 mmHg 86%
    14:00 +1°C° 0.4 mm 4 mps 746 mmHg 86%
    15:00 +1°C° 0.4 mm 5 mps 745 mmHg 86%
    16:00 +1°C° 0.4 mm 5 mps 744 mmHg 86%
    17:00 +1°C° 0.5 mm 5 mps 743 mmHg 86%
    18:00 +1°C° 0.5 mm 5 mps 742 mmHg 87%
    19:00 +1°C° 0.5 mm 5 mps 742 mmHg 87%
    20:00 +2°C° 0.6 mm 6 mps 741 mmHg 86%
    21:00 +2°C° 0.6 mm 6 mps 740 mmHg 86%
    22:00 +2°C° 0.6 mm 6 mps 739 mmHg 85%
    23:00 +2°C° 0.4 mm 6 mps 739 mmHg 86%

    23 October, Tuesday

    Time Temperature Precipitation Wind Pressure Humidity
    00:00 +2°C° 0.4 mm 6 mps 738 mmHg 86%
    01:00 +2°C° 0.4 mm 6 mps 737 mmHg 87%
    02:00 +2°C° 0.3 mm 6 mps 737 mmHg 87%
    03:00 +2°C° 0.3 mm 5 mps 737 mmHg 87%
    04:00 +3°C° 0.3 mm 5 mps 737 mmHg 87%
    05:00 +2°C° 0.1 mm 5 mps 738 mmHg 88%
    06:00 +3°C° 0.1 mm 4 mps 738 mmHg 88%
    07:00 +3°C° 0.1 mm 4 mps 739 mmHg 89%
    08:00 +3°C° 0 mm 4 mps 739 mmHg 87%
    09:00 +3°C° 0 mm 4 mps 739 mmHg 86%
    10:00 +3°C° 0 mm 4 mps 740 mmHg 84%
    11:00 +3°C° 0 mm 4 mps 740 mmHg 82%
    12:00 +4°C° 0 mm 4 mps 740 mmHg 80%
    13:00 +4°C° 0 mm 4 mps 740 mmHg 78%
    14:00 +4°C° 0 mm 3 mps 740 mmHg 81%
    15:00 +4°C° 0 mm 3 mps 740 mmHg 83%
    16:00 +3°C° 0 mm 3 mps 740 mmHg 86%
    17:00 +3°C° 0.2 mm 3 mps 740 mmHg 88%
    18:00 +3°C° 0.2 mm 3 mps 740 mmHg 89%
    19:00 +3°C° 0.2 mm 3 mps 740 mmHg 91%
    20:00 +2°C° 0.1 mm 3 mps 741 mmHg 90%
    21:00 +2°C° 0.1 mm 3 mps 741 mmHg 90%
    22:00 +1°C° 0.1 mm 4 mps 742 mmHg 90%
    23:00 +1°C° 0 mm 3 mps 742 mmHg 90%
    Show more